RH
31 26 24 36 40 33 29 39 27 25 31 30 26 19 9 3 2 3 3 2 2 3 3 4 4 5 6 7 8 7 6 7 7 7 6 6 6 6 7 8 7 7 6
32 33 29 37 39 28 21 23 18 26 34 25 17 12 5 2 2 3 3 3 3 4 5 5 4 7 8 9 10 9 9 10 10 9 7 7 7 8 8 8 7 7 7
39 42 42 42 40 29 25 23 16 34 40 16 10 7 3 3 3 3 3 3 4 5 5 5 6 8 7 8 10 10 11 11 11 11 10 10 9 7 7 8 8 8 7
54 50 47 42 33 27 24 22 20 37 19 8 6 4 3 3 3 3 3 4 5 5 6 6 7 6 5 6 9 9 12 14 14 14 13 11 10 10 8 7 8 8 8
76 56 46 42 33 28 26 26 27 28 7 5 4 3 3 3 3 4 4 4 6 5 6 7 6 6 7 8 9 10 13 14 15 16 16 15 14 12 11 11 10 8 8
91 63 49 40 36 34 33 30 20 8 5 4 4 3 3 3 4 4 4 6 5 6 7 7 7 6 6 9 10 10 13 14 15 16 18 18 17 16 15 15 12 11 10
88 70 58 54 36 40 34 29 11 6 4 4 4 3 4 4 4 4 5 7 5 6 7 6 5 5 5 6 10 10 12 14 15 16 17 18 18 18 17 17 16 16 14
94 86 61 64 44 34 34 19 8 5 4 4 4 4 4 4 5 5 6 7 5 6 6 5 5 5 5 4 6 9 10 12 14 15 15 16 18 19 19 19 17 16 16
94 95 84 92 49 34 34 12 7 4 3 4 4 4 5 5 6 5 7 7 5 6 5 5 5 5 6 4 5 6 9 11 12 12 14 17 22 23 23 22 20 18 15
96 96 95 93 53 31 25 10 6 4 4 4 4 4 5 6 6 5 7 8 6 5 5 5 5 6 6 5 5 6 8 10 11 12 15 22 24 24 22 21 21 19 18
96 96 93 91 48 30 16 7 5 4 5 5 5 5 6 8 6 6 8 9 8 5 6 5 6 7 7 6 5 6 8 9 10 13 22 30 31 32 24 17 17 17 17
97 96 96 94 40 23 14 6 5 5 4 5 5 5 8 8 7 7 8 10 7 6 6 6 7 7 7 7 6 6 8 9 10 17 24 32 36 37 32 22 17 14 12
94 96 95 91 45 24 13 6 6 5 5 5 6 8 9 8 8 9 9 6 6 7 8 9 8 8 8 7 7 7 8 9 12 18 23 32 36 41 41 35 27 23 18
95 96 92 60 42 34 12 7 6 5 5 5 8 10 10 9 10 10 8 8 8 10 10 10 10 10 9 7 10 9 9 10 12 17 21 31 35 43 45 43 37 30 27
83 97 89 52 41 28 13 7 7 6 5 5 8 11 10 10 11 11 12 13 13 14 14 14 13 14 12 12 12 12 10 11 13 16 18 26 30 34 39 43 42 37 32
98 94 89 82 54 30 10 7 6 6 6 7 10 10 10 12 14 13 14 14 15 20 20 19 16 14 13 14 12 12 11 12 13 14 15 18 24 27 33 40 43 39 33
96 90 92 71 57 46 28 28 9 9 8 7 8 11 12 15 14 14 15 16 21 21 20 22 21 17 14 13 13 13 12 12 13 13 14 16 19 23 30 38 42 40 36
86 88 88 94 92 88 74 18 11 13 10 8 8 12 12 15 14 14 17 20 21 21 22 22 21 21 20 18 14 13 12 12 12 13 13 16 19 27 35 40 42 40 35
92 94 96 95 94 87 18 11 13 16 11 9 10 12 14 15 14 14 19 21 22 24 24 23 22 22 21 20 17 14 12 12 12 13 14 17 26 39 38 42 39 36 32
96 96 94 92 94 65 66 16 12 13 10 9 10 13 13 14 14 15 19 21 23 25 24 23 21 24 25 22 22 19 16 15 13 14 16 25 37 40 37 38 35 30 23
87 91 97 96 90 91 52 21 14 12 10 12 13 13 13 14 15 16 18 21 23 22 23 23 22 24 27 28 24 22 18 16 17 21 26 32 39 37 38 36 31 24 16
97 98 96 96 95 93 83 28 12 12 11 12 14 14 15 15 15 16 18 20 21 20 20 21 23 24 31 32 29 28 24 22 26 32 30 31 39 35 38 37 34 24 16
96 96 96 96 97 96 93 39 11 13 11 13 15 16 16 15 16 17 17 19 18 18 19 21 23 25 30 34 34 31 27 26 28 37 44 45 38 37 42 41 26 15 15
96 98 98 96 95 95 94 41 11 13 13 17 19 19 17 18 18 17 18 17 18 18 18 22 26 27 29 35 39 34 28 28 29 45 41 43 39 35 35 33 32 28 22
98 96 97 96 96 93 88 52 16 12 13 16 18 19 18 18 17 18 17 17 18 18 25 29 28 29 35 37 41 37 32 30 36 45 40 36 37 36 35 35 34 32 32
97 96 96 87 88 90 55 23 12 12 13 14 17 18 20 21 18 19 18 19 21 27 31 32 32 34 33 44 48 44 37 32 31 47 44 38 37 38 37 36 35 35 35
Wind_Speed
41 41 40 39 37 34 31 29 25 24 22 20 18 15 14 15 13 11 7 3 1 3 4 2 4 5 6 8 8 11 12 13 13 15 16 16 15 14 13 15 14 13 11
44 39 40 40 37 35 33 28 25 23 21 21 18 16 17 16 14 10 7 3 3 1 1 3 4 5 6 10 11 12 13 13 12 14 17 17 17 18 16 16 14 12 10
43 41 41 40 38 33 30 28 26 24 23 20 18 18 19 17 13 10 6 4 3 3 1 2 3 4 6 7 9 11 12 12 10 12 15 15 16 16 16 15 14 14 12
43 41 42 41 38 33 30 29 28 26 22 20 19 19 19 17 14 10 8 5 5 5 3 1 2 4 6 8 9 12 13 12 10 10 12 13 13 14 15 14 14 15 15
43 44 43 41 38 35 32 31 29 26 24 21 21 21 20 17 15 12 8 7 7 6 3 2 3 4 7 8 9 10 12 13 12 10 11 11 12 13 14 15 15 16 16
46 45 46 43 41 35 34 31 30 28 25 23 23 23 21 18 15 11 9 9 9 7 5 5 3 5 8 9 10 10 12 13 14 13 13 13 13 13 13 14 15 18 19
50 48 47 45 41 37 36 32 32 28 27 26 26 24 21 19 16 12 11 10 11 9 7 6 5 8 10 11 12 13 12 13 14 15 15 15 16 16 16 17 17 17 19
53 51 51 45 42 40 37 34 34 29 28 28 27 25 22 19 16 14 12 11 13 12 10 7 7 9 12 14 14 14 16 14 15 16 17 18 18 20 20 19 19 19 19
57 56 55 51 46 44 39 36 35 31 29 29 28 24 22 18 16 14 13 12 13 15 11 8 9 10 13 16 16 15 17 17 16 18 19 21 22 23 23 23 23 22 21
60 62 58 52 48 44 39 38 36 32 32 30 28 25 22 18 16 15 14 13 16 15 11 11 12 13 16 17 17 16 18 18 18 20 22 24 27 28 29 27 26 24 23
49 63 62 58 50 45 41 41 37 34 32 30 28 26 22 17 17 16 13 16 16 15 14 13 13 15 17 19 20 18 19 19 18 20 22 26 28 28 26 24 23 22 22
41 64 66 55 49 46 42 41 37 35 34 31 29 26 21 19 19 16 16 16 16 15 15 15 15 16 19 21 22 20 20 21 19 20 23 25 26 24 23 21 20 19 19
47 67 56 51 50 47 44 42 38 36 35 32 29 27 22 21 18 19 16 17 16 16 15 16 16 17 20 23 25 23 22 22 21 20 23 25 25 23 20 19 18 17 16
52 56 52 53 52 47 46 44 40 38 36 34 30 27 23 22 22 17 18 16 16 16 17 17 18 19 22 24 24 24 25 24 23 21 22 24 24 23 21 19 19 18 17
49 61 61 56 51 45 45 43 40 39 37 34 32 28 25 25 20 20 18 16 17 17 17 18 19 19 23 25 25 25 26 25 24 23 23 24 26 25 24 24 22 22 21
59 66 63 54 52 47 44 41 41 40 39 36 34 29 28 25 22 20 19 17 16 13 14 15 15 18 23 24 26 26 27 26 25 25 24 25 27 28 28 27 26 25 25
67 62 62 58 55 52 41 43 43 41 38 37 34 33 31 27 24 22 19 18 16 13 15 14 15 18 22 23 25 27 28 26 26 26 26 27 28 30 31 29 28 27 28
67 66 67 66 61 57 47 49 44 40 38 38 36 35 32 29 26 23 21 21 16 16 17 16 15 19 22 22 25 26 29 29 28 28 28 28 29 32 34 34 31 29 29
63 64 61 70 65 56 51 49 45 42 40 39 38 36 35 30 29 26 24 22 20 20 20 19 18 20 23 24 25 26 28 29 30 29 29 30 29 31 34 34 32 30 30
71 65 60 70 64 60 54 49 45 43 41 39 39 38 35 32 31 28 27 25 24 23 22 21 21 22 25 25 28 27 28 29 29 30 30 31 32 32 35 35 33 34 36
53 60 66 72 74 64 54 47 43 41 40 40 39 38 37 36 33 29 30 29 28 27 24 24 25 24 26 27 28 29 28 29 29 30 31 32 34 34 36 35 36 38 39
61 65 73 74 70 64 54 45 43 44 43 45 44 43 40 38 33 34 34 32 31 29 27 27 29 26 29 27 29 31 29 29 29 31 33 34 35 37 37 36 39 41 42
55 65 71 70 66 62 55 48 47 47 46 43 40 38 36 37 36 36 35 32 33 32 30 30 30 30 32 30 31 33 31 31 32 34 36 37 37 39 39 40 43 44 45
43 53 69 70 59 60 60 47 43 45 43 42 41 41 42 41 39 38 35 35 36 34 31 31 31 33 35 34 33 35 34 34 34 36 36 37 41 42 43 45 47 49 50
52 56 64 56 54 55 50 47 47 46 44 42 42 41 41 39 40 37 37 38 37 32 30 32 35 35 35 35 36 36 35 36 37 38 40 40 41 43 46 49 51 53 55
49 51 53 58 59 51 48 48 45 44 43 42 41 39 39 38 40 38 38 36 35 32 34 36 36 35 35 36 36 38 37 39 40 41 42 45 46 48 50 53 55 57 60
Wind_Direction
201 203 203 206 205 203 202 205 206 208 203 203 204 206 194 188 178 177 172 188 277 311 316 20 7 326 328 325 327 319 311 304 300 296 295 297 300 299 300 301 307 310 311
204 200 202 209 204 203 205 208 209 204 202 204 203 202 187 188 188 187 189 213 279 306 314 33 349 333 349 342 339 329 327 317 315 304 295 293 293 294 294 297 298 296 301
202 200 204 208 202 207 209 206 207 199 196 198 192 188 186 189 193 198 208 216 205 175 185 26 329 336 354 341 343 335 329 324 327 320 308 300 296 292 291 294 294 289 287
203 202 204 206 203 203 208 208 207 196 196 191 188 188 188 191 198 205 215 200 201 184 168 236 285 339 341 335 338 336 334 325 330 329 321 325 308 298 294 292 287 282 282
203 204 205 206 207 200 207 210 206 199 195 190 191 191 193 195 202 207 213 199 205 189 195 211 267 334 339 332 329 334 336 337 335 342 339 338 330 321 307 297 292 286 281
200 205 206 205 207 202 205 209 210 199 194 193 193 194 197 202 210 212 200 209 202 200 207 228 281 318 324 324 321 327 332 337 333 342 339 339 337 331 321 313 302 291 284
199 204 206 207 205 202 207 206 213 199 192 191 194 195 201 207 212 215 202 211 206 209 211 239 286 311 314 314 313 317 321 330 333 337 336 336 333 329 324 318 312 304 295
200 207 207 207 207 208 206 205 209 200 194 192 194 199 203 211 216 210 205 216 212 221 229 251 282 303 308 306 304 311 310 318 326 326 327 327 327 323 319 315 308 302 298
204 206 207 206 207 208 205 206 205 199 196 195 196 200 207 216 220 213 211 223 222 230 240 258 281 293 303 300 304 305 303 309 316 318 318 319 321 318 314 309 306 302 295
202 207 207 204 207 208 206 206 203 197 199 199 198 204 210 215 221 216 217 227 230 235 244 259 274 287 295 299 296 300 301 304 310 311 315 319 319 316 311 307 302 299 294
217 213 207 204 206 207 206 204 201 198 201 202 204 208 209 215 222 220 227 234 232 236 244 254 268 282 291 294 295 297 299 299 305 309 315 320 321 321 321 314 306 299 294
230 212 209 198 207 207 206 204 201 199 203 205 206 209 208 215 220 227 231 233 233 236 245 257 269 281 286 290 292 293 295 296 300 306 313 320 321 322 325 322 313 307 302
227 204 198 200 206 206 205 203 202 200 202 206 207 208 208 217 221 225 228 231 235 242 251 262 272 280 285 290 291 293 291 292 296 305 310 317 320 322 325 326 325 322 316
215 212 196 205 205 206 206 203 201 202 203 206 207 210 211 217 220 222 226 231 240 249 257 263 270 278 284 286 288 290 288 289 294 302 306 314 319 322 325 327 326 323 321
220 214 198 203 205 206 208 205 203 203 205 206 209 209 216 217 214 217 224 232 244 251 260 267 273 279 281 283 285 285 284 287 292 298 302 310 313 318 325 328 328 322 317
210 203 198 202 206 207 208 206 207 206 206 207 210 209 215 215 213 219 228 234 243 252 267 276 284 285 283 284 285 284 284 287 291 296 299 305 309 313 319 324 324 319 316
210 200 199 203 204 202 208 209 210 209 209 210 211 213 213 215 217 223 229 234 236 255 270 282 298 295 289 287 286 286 285 287 290 294 297 301 305 310 315 318 318 316 314
214 208 204 203 204 204 206 212 210 211 212 212 213 214 216 217 221 227 231 234 240 254 266 277 291 297 293 292 288 285 286 289 291 292 295 299 304 309 313 315 315 315 313
216 217 218 211 212 204 209 211 211 211 211 213 214 214 218 219 226 228 234 238 246 256 265 277 285 293 295 295 293 289 288 288 290 292 294 297 301 306 310 312 312 312 311
223 217 223 213 207 204 205 211 211 213 214 214 217 217 219 222 228 230 236 241 247 255 266 273 281 285 293 297 290 291 290 291 291 292 294 297 299 304 308 309 310 312 313
223 232 233 225 212 203 208 211 211 214 214 216 218 219 221 225 228 232 237 242 249 257 263 270 275 278 286 293 291 290 291 292 292 293 292 294 297 302 304 305 308 309 309
230 230 228 218 214 205 208 213 211 213 213 215 216 218 220 225 229 233 238 243 250 258 262 265 271 273 278 286 289 287 290 290 290 292 293 293 296 303 302 300 305 305 307
234 232 224 215 210 208 211 213 211 214 215 217 220 224 225 228 231 237 241 248 254 257 259 265 271 271 275 281 286 285 286 287 289 294 296 297 298 302 302 300 303 304 306
226 229 221 218 211 212 212 214 215 217 217 217 220 222 225 229 234 237 243 247 250 255 262 269 269 269 275 280 282 283 284 285 286 289 293 297 299 301 305 307 306 306 306
223 228 225 209 206 205 205 208 215 217 219 221 223 226 229 232 236 239 243 246 251 258 263 263 265 268 273 278 279 282 282 284 288 289 292 295 296 297 297 300 303 306 307
216 220 215 217 208 198 203 208 215 218 221 222 225 229 233 236 239 242 246 248 253 255 258 263 268 272 274 275 278 282 282 282 285 290 290 293 296 298 301 302 303 307 309